Bellingham, WA

10:20 PM PDT on March 26, 2017 (GMT -0700)
Bellingham International

Weather History for KBLI - July, 2013

Change the Weather History Date:

Saturday, July 6, 2013

  Actual Average Record
Temperature  
Mean Temperature 63 °F 61 °F  
Max Temperature 75 °F 70 °F 87 °F (1958)
Min Temperature 51 °F 53 °F 40 °F (1952)
Degree Days  
Heating Degree Days 2 4  
Month to date heating degree days 6 24  
Since 1 June heating degree days 141 225  
Cooling Degree Days 0 0  
Month to date cooling degree days 9 0  
Year to date cooling degree days 23 4  
Since 1 June cooling degree days 23 4  
Growing Degree Days 13 (Base 50)    
Moisture  
Dew Point 54 °F    
Average Humidity 73    
Maximum Humidity 96    
Minimum Humidity 50    
Precipitation  
Precipitation 0.00 in 0.05 in 0.38 in (2004)
Month to date precipitation 0.00 0.28  
Year to date precipitation 14.86 18.22  
Sea Level Pressure  
Sea Level Pressure 29.95 in    
Wind  
Wind Speed 4 mph (SW)    
Max Wind Speed 29 mph    
Max Gust Speed 131 mph    
Visibility 9 miles    
Events      
T = Trace of Precipitation, MM = Missing Value Source: NWS Daily Summary

Daily Weather History Graph

Daily Weather History Graph

Search for Another Location

Airport or City:

Trip Planner

Search our weather history database for the weather conditions in past years. The results will help you decide how hot, cold, wet, or windy it might be!

Date:

Astronomy

Jul. 06, 2013 Rise Set
Actual Time 5:14 AM PDT 9:14 PM PDT
Civil Twilight 4:33 AM PDT 9:56 PM PDT
Nautical Twilight 3:35 AM PDT 10:53 PM PDT
Astronomical Twilight 1:54 AM PDT 12:31 AM PDT
Moon 4:10 AM PDT (7/6) 7:54 PM PDT (7/6)
Length of Visible Light 17h 22m
Length of Day
15h 59m
Waning Crescent, 2% of the Moon is Illuminated
Jul 6
Waning Crescent
Jul 8
New
Jul 15
First Quarter
Jul 22
Full
Jul 29
Last Quarter

Hourly Weather History & Observations

Time (PDT) Temp. Dew Point Humidity Pressure Visibility Wind Dir Wind Speed Gust Speed Precip Events Conditions
12:53 AM 55.9 °F 53.1 °F 90% 29.99 in 10.0 mi Calm Calm - N/A   Mostly Cloudy
1:53 AM 54.0 °F 51.1 °F 90% 30.00 in 10.0 mi Calm Calm - N/A   Clear
2:53 AM 53.1 °F 51.1 °F 93% 30.00 in 10.0 mi Calm Calm - N/A   Clear
2:59 AM 51.8 °F 50.0 °F 94% 29.98 in 1.8 mi Calm Calm - N/A   Clear
3:10 AM 53.6 °F 51.8 °F 94% 29.98 in 3.0 mi Calm Calm - N/A   Clear
3:53 AM 52.0 °F 50.0 °F 93% 30.00 in 10.0 mi Calm Calm - N/A   Clear
4:53 AM 53.1 °F 51.1 °F 93% 29.99 in 9.0 mi Calm Calm - N/A   Clear
5:25 AM 53.6 °F 51.8 °F 94% 29.97 in 2.5 mi Calm Calm - N/A   Clear
5:33 AM 51.8 °F 51.8 °F 100% 29.97 in 7.0 mi Calm Calm - N/A   Clear
5:44 AM 51.8 °F 50.0 °F 94% 29.97 in 2.5 mi Calm Calm - N/A   Clear
5:53 AM 52.0 °F 50.0 °F 93% 29.99 in 8.0 mi Calm Calm - N/A   Clear
6:53 AM 59.0 °F 55.0 °F 87% 29.99 in 10.0 mi Calm Calm - N/A   Clear
7:53 AM 62.1 °F 55.9 °F 80% 30.00 in 10.0 mi North 4.6 mph - N/A   Clear
8:53 AM 66.0 °F 54.0 °F 65% 29.99 in 10.0 mi NNW 4.6 mph - N/A   Clear
9:53 AM 68.0 °F 54.0 °F 61% 29.99 in 10.0 mi WSW 3.5 mph - N/A   Clear
10:53 AM 70.0 °F 55.9 °F 61% 29.98 in 10.0 mi West 8.1 mph - N/A   Partly Cloudy
11:53 AM 71.1 °F 55.9 °F 59% 29.98 in 10.0 mi WSW 8.1 mph - N/A   Partly Cloudy
12:53 PM 71.1 °F 55.0 °F 57% 29.97 in 10.0 mi Variable 5.8 mph - N/A   Clear
1:53 PM 72.0 °F 53.1 °F 51% 29.96 in 10.0 mi West 8.1 mph - N/A   Clear
2:53 PM 73.0 °F 55.9 °F 55% 29.94 in 10.0 mi Variable 6.9 mph - N/A   Clear
3:53 PM 73.9 °F 55.0 °F 52% 29.93 in 10.0 mi Variable 3.5 mph - N/A   Clear
4:53 PM 73.9 °F 55.0 °F 52% 29.91 in 10.0 mi Calm Calm - N/A   Clear
5:53 PM 75.0 °F 55.9 °F 51% 29.90 in 10.0 mi Variable 3.5 mph - N/A   Clear
6:53 PM 73.0 °F 55.9 °F 55% 29.89 in 10.0 mi South 4.6 mph - N/A   Clear
7:53 PM 71.1 °F 55.9 °F 59% 29.88 in 10.0 mi Calm Calm - N/A   Clear
8:48 PM 66.2 °F 55.4 °F 68% 29.87 in 10.0 mi SSE 6.9 mph 131.2 mph N/A   Squalls
8:53 PM 66.0 °F 55.9 °F 70% 29.88 in 10.0 mi SSE 6.9 mph - N/A   Clear
9:53 PM 66.0 °F 55.0 °F 68% 29.89 in 10.0 mi South 3.5 mph - N/A   Clear
10:53 PM 64.0 °F 57.0 °F 78% 29.90 in 10.0 mi SSE 9.2 mph - N/A   Clear
11:53 PM 63.0 °F 55.0 °F 75% 29.90 in 10.0 mi South 6.9 mph - N/A   Clear